Погода в Нижнем Санчелееве

Россия / Самарская область     53°40′38″N   49°25′36″E
темп.,
°C
ветер,
м/с
пор.,
м/с
влажн.,
%
обл.,
%
осадки,
мм/ч
давл.,
гПа
погр.,
м
16 апреля, пт
пт1601:00+13ююв225397 0.0 101811
04:00+12в2254100 0.0 101815
07:00+11в3561100 0.0 101871
10:00+16в4647100 0.0 1019335
13:00+20в4536100 0.0 1019940
16:00+21в443152 0.0 10192609
19:00+17св6115211 0.0 1020288
22:00+13всв6137211 0.0 1021320
17 апреля, сб
сб1701:00+11всв511827 0.0 1022268
04:00+9св499015 0.0 1023232
07:00+8св598727 0.0 1023276
10:00+13всв67645 0.0 1023570
13:00+16всв66525 0.0 1023964
16:00+17всв66451 0.0 10221234
19:00+14св58522 0.0 1022259
22:00+10св49582 0.0 1023226
18 апреля, вс
вс1801:00+9всв511590 0.0 1022264
04:00+7всв511584 0.0 1023257
07:00+7всв51159100 0.0 1023340
10:00+11в6844100 0.0 1023640
13:00+14в6738100 0.0 10221043
16:00+15в563690 0.0 10221496
19:00+13всв5843100 0.0 1022356
22:00+11всв51151100 0.0 1023485
19 апреля, пн
пн1901:00+8в71365100 0.0 1024515
04:00+6всв61265100 0.0 1025416
07:00+5всв61264100 0.0 1026431
10:00+8всв7962100 0.0 1027760
13:00+11в8952100 0.0 10271424
16:00+10в894996 0.0 10271504
19:00+8в7105579 0.0 10281091
22:00+5в6126663 0.0 1030681
20 апреля, вт
вт2001:00+5в5126620 0.0 1030647
04:00+4вюв7125527 0.0 1030574
07:00+3вюв8145622 0.0 1031591
10:00+6вюв912459 0.0 1031822
13:00+9вюв91139100 0.0 10291104
16:00+10вюв81037100 0.0 10281293
19:00+9вюв71238100 0.0 1027889
22:00+7юв6134199 0.0 1028508